Meteo pe oră la Dziemionna

Astăzi, 16 Ianuarie, Sâmbătă

Timp Temperatura Precipitaţii Vânt Presiune Umiditate
00:00 -7°C° 0 mm 3 m/s 758 mmHg 94%
01:00 -7°C° 0 mm 3 m/s 758 mmHg 93%
02:00 -7°C° 0 mm 3 m/s 758 mmHg 93%
03:00 -8°C° 0 mm 4 m/s 757 mmHg 92%
04:00 -8°C° 0 mm 4 m/s 757 mmHg 92%
05:00 -7°C° 0 mm 4 m/s 757 mmHg 92%
06:00 -7°C° 0 mm 4 m/s 757 mmHg 92%
07:00 -7°C° 0 mm 4 m/s 757 mmHg 92%
08:00 -7°C° 0 mm 4 m/s 757 mmHg 90%
09:00 -7°C° 0 mm 5 m/s 756 mmHg 88%
10:00 -7°C° 0 mm 5 m/s 756 mmHg 86%
11:00 -8°C° 0 mm 6 m/s 755 mmHg 87%
12:00 -6°C° 0 mm 6 m/s 755 mmHg 88%
13:00 -7°C° 0 mm 7 m/s 754 mmHg 89%
14:00 -7°C° 0.4 mm 7 m/s 754 mmHg 89%
15:00 -7°C° 0.4 mm 7 m/s 753 mmHg 90%
16:00 -7°C° 0.4 mm 7 m/s 753 mmHg 90%
17:00 -6°C° 0.3 mm 6 m/s 753 mmHg 90%
18:00 -7°C° 0.3 mm 5 m/s 753 mmHg 91%
19:00 -8°C° 0.3 mm 4 m/s 753 mmHg 92%
20:00 -10°C° 0 mm 4 m/s 753 mmHg 91%
21:00 -12°C° 0 mm 4 m/s 754 mmHg 90%
22:00 -13°C° 0 mm 3 m/s 755 mmHg 90%
23:00 -14°C° 0 mm 3 m/s 755 mmHg 90%

Mâine, 17 Ianuarie, Duminică

Timp Temperatura Precipitaţii Vânt Presiune Umiditate
00:00 -15°C° 0 mm 3 m/s 755 mmHg 89%
01:00 -17°C° 0 mm 3 m/s 755 mmHg 89%
02:00 -17°C° 0 mm 3 m/s 756 mmHg 89%
03:00 -17°C° 0 mm 2 m/s 756 mmHg 89%
04:00 -17°C° 0 mm 2 m/s 756 mmHg 90%
05:00 -18°C° 0 mm 2 m/s 756 mmHg 90%
06:00 -18°C° 0 mm 2 m/s 757 mmHg 90%
07:00 -18°C° 0 mm 2 m/s 757 mmHg 90%
08:00 -18°C° 0 mm 2 m/s 757 mmHg 88%
09:00 -15°C° 0 mm 1 m/s 758 mmHg 87%
10:00 -15°C° 0 mm 1 m/s 758 mmHg 85%
11:00 -14°C° 0 mm 1 m/s 758 mmHg 83%
12:00 -13°C° 0 mm 1 m/s 758 mmHg 81%
13:00 -12°C° 0 mm 1 m/s 759 mmHg 79%
14:00 -13°C° 0 mm 1 m/s 759 mmHg 82%
15:00 -13°C° 0 mm 1 m/s 759 mmHg 85%
16:00 -14°C° 0 mm 1 m/s 758 mmHg 88%
17:00 -14°C° 0 mm 1 m/s 759 mmHg 89%
18:00 -15°C° 0 mm 0 m/s 759 mmHg 90%
19:00 -15°C° 0 mm 0 m/s 759 mmHg 90%
20:00 -15°C° 0 mm 0 m/s 760 mmHg 91%
21:00 -15°C° 0 mm 0 m/s 760 mmHg 91%
22:00 -15°C° 0 mm 1 m/s 760 mmHg 91%
23:00 -15°C° 0 mm 1 m/s 760 mmHg 91%

Poimâine, 18 Ianuarie, Luni

Timp Temperatura Precipitaţii Vânt Presiune Umiditate
00:00 -15°C° 0 mm 1 m/s 760 mmHg 92%
01:00 -15°C° 0 mm 1 m/s 760 mmHg 92%
02:00 -15°C° 0 mm 1 m/s 760 mmHg 92%
03:00 -15°C° 0 mm 1 m/s 759 mmHg 92%
04:00 -16°C° 0 mm 1 m/s 759 mmHg 92%
05:00 -15°C° 0 mm 1 m/s 759 mmHg 92%
06:00 -15°C° 0 mm 1 m/s 759 mmHg 92%
07:00 -15°C° 0 mm 1 m/s 759 mmHg 92%
08:00 -17°C° 0 mm 2 m/s 759 mmHg 91%
09:00 -16°C° 0 mm 2 m/s 759 mmHg 90%
10:00 -15°C° 0 mm 2 m/s 759 mmHg 90%
11:00 -14°C° 0 mm 2 m/s 759 mmHg 88%
12:00 -13°C° 0 mm 2 m/s 758 mmHg 87%
13:00 -12°C° 0 mm 2 m/s 758 mmHg 86%
14:00 -13°C° 0 mm 2 m/s 758 mmHg 88%
15:00 -13°C° 0 mm 2 m/s 758 mmHg 89%
16:00 -13°C° 0 mm 2 m/s 757 mmHg 90%
17:00 -12°C° 0 mm 2 m/s 757 mmHg 91%
18:00 -12°C° 0 mm 2 m/s 757 mmHg 92%
19:00 -12°C° 0 mm 3 m/s 756 mmHg 93%
20:00 -12°C° 0.1 mm 3 m/s 756 mmHg 94%
21:00 -10°C° 0.1 mm 3 m/s 756 mmHg 95%
22:00 -9°C° 0.1 mm 3 m/s 755 mmHg 95%
23:00 -7°C° 0.4 mm 3 m/s 755 mmHg 96%

19 Ianuarie, Marţi

Timp Temperatura Precipitaţii Vânt Presiune Umiditate
00:00 -6°C° 0.4 mm 3 m/s 755 mmHg 96%
01:00 -4°C° 0.4 mm 3 m/s 754 mmHg 97%
02:00 -2°C° 0.2 mm 3 m/s 754 mmHg 97%
03:00 -1°C° 0.2 mm 3 m/s 754 mmHg 97%
04:00 -1°C° 0.2 mm 4 m/s 753 mmHg 98%
05:00 -1°C° 0.1 mm 4 m/s 753 mmHg 98%
06:00 -1°C° 0.1 mm 4 m/s 753 mmHg 97%
07:00 -1°C° 0.1 mm 4 m/s 753 mmHg 97%
08:00 -1°C° 0 mm 4 m/s 753 mmHg 98%
09:00 -1°C° 0 mm 4 m/s 753 mmHg 98%
10:00 -1°C° 0 mm 4 m/s 753 mmHg 98%
11:00 -1°C° 0 mm 4 m/s 752 mmHg 98%
12:00 -1°C° 0 mm 4 m/s 752 mmHg 98%
13:00 -1°C° 0 mm 4 m/s 752 mmHg 98%
14:00 -1°C° 0 mm 4 m/s 751 mmHg 97%
15:00 -2°C° 0 mm 4 m/s 751 mmHg 96%
16:00 -2°C° 0 mm 4 m/s 750 mmHg 94%
17:00 -2°C° 0.3 mm 5 m/s 750 mmHg 95%
18:00 -2°C° 0.3 mm 5 m/s 749 mmHg 96%
19:00 -2°C° 0.3 mm 5 m/s 749 mmHg 97%
20:00 -2°C° 0.7 mm 5 m/s 748 mmHg 97%
21:00 -1°C° 0.7 mm 5 m/s 748 mmHg 97%
22:00 -1°C° 0.7 mm 5 m/s 747 mmHg 98%
23:00 -2°C° 0.4 mm 6 m/s 747 mmHg 98%

20 Ianuarie, Miercuri

Timp Temperatura Precipitaţii Vânt Presiune Umiditate
00:00 -1°C° 0.4 mm 6 m/s 747 mmHg 98%
01:00 -1°C° 0.4 mm 6 m/s 746 mmHg 98%
02:00 -1°C° 0.2 mm 6 m/s 746 mmHg 97%
03:00 -1°C° 0.2 mm 6 m/s 746 mmHg 97%
04:00 -1°C° 0.2 mm 6 m/s 746 mmHg 96%
05:00 -1°C° 0.1 mm 6 m/s 746 mmHg 95%
06:00 0°C° 0.1 mm 5 m/s 746 mmHg 95%
07:00 0°C° 0.1 mm 5 m/s 746 mmHg 94%
08:00 0°C° 0 mm 5 m/s 746 mmHg 93%
09:00 0°C° 0 mm 5 m/s 746 mmHg 92%
10:00 0°C° 0 mm 5 m/s 746 mmHg 92%
11:00 0°C° 0 mm 5 m/s 746 mmHg 91%
12:00 0°C° 0 mm 5 m/s 745 mmHg 91%
13:00 0°C° 0 mm 5 m/s 745 mmHg 90%
14:00 0°C° 0 mm 5 m/s 745 mmHg 88%
15:00 0°C° 0 mm 5 m/s 745 mmHg 87%
16:00 0°C° 0 mm 5 m/s 745 mmHg 85%
17:00 0°C° 0 mm 5 m/s 745 mmHg 86%
18:00 0°C° 0 mm 5 m/s 745 mmHg 87%
19:00 0°C° 0 mm 5 m/s 745 mmHg 87%
20:00 0°C° 0 mm 5 m/s 744 mmHg 87%
21:00 0°C° 0 mm 5 m/s 744 mmHg 86%
22:00 0°C° 0 mm 4 m/s 744 mmHg 86%
23:00 0°C° 0 mm 4 m/s 744 mmHg 84%

21 Ianuarie, Joi

Timp Temperatura Precipitaţii Vânt Presiune Umiditate
00:00 0°C° 0 mm 4 m/s 744 mmHg 83%
01:00 0°C° 0 mm 4 m/s 744 mmHg 81%
02:00 0°C° 0 mm 5 m/s 744 mmHg 79%
03:00 0°C° 0 mm 5 m/s 744 mmHg 78%
04:00 -1°C° 0 mm 6 m/s 744 mmHg 76%
05:00 0°C° 0 mm 5 m/s 744 mmHg 79%
06:00 -1°C° 0 mm 5 m/s 744 mmHg 81%
07:00 -1°C° 0 mm 5 m/s 744 mmHg 84%
08:00 0°C° 0 mm 5 m/s 743 mmHg 86%
09:00 0°C° 0 mm 5 m/s 743 mmHg 88%
10:00 0°C° 0 mm 5 m/s 743 mmHg 90%
11:00 0°C° 0 mm 5 m/s 742 mmHg 91%
12:00 +1°C° 0 mm 5 m/s 742 mmHg 92%
13:00 +1°C° 0 mm 5 m/s 742 mmHg 93%
14:00 +1°C° 0 mm 5 m/s 742 mmHg 91%
15:00 0°C° 0 mm 5 m/s 742 mmHg 90%
16:00 0°C° 0 mm 5 m/s 743 mmHg 89%
17:00 0°C° 0 mm 5 m/s 743 mmHg 89%
18:00 0°C° 0 mm 5 m/s 744 mmHg 90%
19:00 0°C° 0 mm 4 m/s 744 mmHg 90%
20:00 0°C° 0 mm 4 m/s 745 mmHg 91%
21:00 0°C° 0 mm 4 m/s 745 mmHg 91%
22:00 -1°C° 0 mm 5 m/s 746 mmHg 92%
23:00 -1°C° 0 mm 5 m/s 746 mmHg 91%
Arată mai mult

Formular de consimțământ

Meteoprog și furnizorii noștri de servicii pot stoca și accesa date personale, precum cookies, identificatori de dispozitiv sau alte tehnologii similare pe dispozitivul dumneavoastră și procesa astfel de date pentru a personaliza conținutul și reclamele, dar și pentru a oferi caracteristici de social media și pentru a analiza traficul.

  • Stocarea și/sau accesarea informațiilor pe dispozitivul dumneavoastră

    Cookies, identificatori de dispozitiv sau alte informații pot fi stocate sau accesate pe dispozitiv în scopurile indicate mai sus.

  • Reclame și conținut personalizat, evaluarea reclamelor și a conținutului, informații despre audiențe și dezvoltarea produselor

    Reclamele și conținutul pot fi personalizate pe baza unui profil. Pot fi adăugate date suplimentare pentru a personaliza mai bine reclamele și conținutul. Performanța reclamelor și conținutului poate fi măsurată. Pot fi obținute informații despre utilizatorii care au văzut reclamele și conținutul. Aceste date pot fi utilizate pentru a dezvolta sau îmbunătăți experiența utilizatorilor, sistemele și software-ul.

Dând clic pe ‘Sunt de acord’, permiteți utilizarea cookie-urilor menționate, a identificatorilor de dispozitiv, balizelor web sau altor tehnologii similare. Setările pot fi modificate din browser-ul dispozitivului dumneavoastră.

În anumite scopuri, interesele legitime pot prima asupra consimțământului. Puteți citi mai multe informații în acest sens în Politica privind Confidențialitatea Datelor și Cookie.